JBU7532 KDCA-KLGA

Flight info

Callsign JBU7532
Flight time N/A
Altitude 21000
Route DOCTR5 AGARD SPEAK PROUD2
Aircraft A20N/M-SDE2E3FGHIRWXY/LB1

Departure

Time 2026-05-06 02:07
Airport Ronald Reagan Washington National Airport (KDCA)

Arrival

Time N/A
Airport LaGuardia Airport (KLGA)
Time Latitude Longitude Altitude Speed Heading
2026-05-06 01:46 38.85237 -77.04053 20 ft 0 kts 262°
2026-05-06 01:52 38.85238 -77.04049 20 ft 3 kts 262°
2026-05-06 01:52 38.85241 -77.04021 20 ft 3 kts 264°
2026-05-06 01:53 38.85242 -77.03990 19 ft 6 kts 285°
2026-05-06 01:53 38.85230 -77.03972 21 ft 0 kts 343°
2026-05-06 01:59 38.85254 -77.03981 22 ft 6 kts 343°
2026-05-06 01:59 38.85306 -77.03993 20 ft 0 kts 352°
2026-05-06 02:00 38.85354 -77.04001 21 ft 17 kts 355°
2026-05-06 02:00 38.85460 -77.04006 23 ft 10 kts 355°
2026-05-06 02:01 38.85532 -77.04010 23 ft 10 kts 11°
2026-05-06 02:01 38.85615 -77.03978 24 ft 1 kts
2026-05-06 02:01 38.85651 -77.03974 24 ft 19 kts
2026-05-06 02:01 38.85774 -77.03977 28 ft 6 kts 355°
2026-05-06 02:02 38.85932 -77.03982 26 ft 31 kts 12°
2026-05-06 02:02 38.86000 -77.03957 26 ft 0 kts 21°
2026-05-06 02:03 38.85999 -77.03957 26 ft 0 kts 21°
2026-05-06 02:05 38.86000 -77.03957 26 ft 0 kts 21°
2026-05-06 02:05 38.86004 -77.03955 22 ft 0 kts 20°
2026-05-06 02:05 38.86008 -77.03953 22 ft 0 kts 19°
2026-05-06 02:05 38.86036 -77.03932 21 ft 14 kts 36°
2026-05-06 02:06 38.86073 -77.03870 20 ft 1 kts 67°
2026-05-06 02:06 38.86052 -77.03941 22 ft 7 kts 74°
2026-05-06 02:06 38.85987 -77.03768 26 ft 28 kts 156°
2026-05-06 02:06 38.85581 -77.03827 23 ft 108 kts 174°
2026-05-06 02:07 38.84563 -77.03704 162 ft 177 kts 178°
2026-05-06 02:07 38.83269 -77.03604 927 ft 198 kts 178°
2026-05-06 02:07 38.81790 -77.03453 1662 ft 224 kts 178°
2026-05-06 02:07 38.80202 -77.03113 2448 ft 236 kts 174°
2026-05-06 02:08 38.78604 -77.02678 3001 ft 237 kts 175°
2026-05-06 02:08 38.77017 -77.01972 3271 ft 250 kts 156°
2026-05-06 02:08 38.75734 -77.00339 3676 ft 269 kts 129°
2026-05-06 02:08 38.75136 -76.97994 4173 ft 288 kts 102°
2026-05-06 02:09 38.75060 -76.95372 4696 ft 296 kts 95°
2026-05-06 02:09 38.75315 -76.92745 5175 ft 306 kts 74°
2026-05-06 02:09 38.76392 -76.90390 5672 ft 309 kts 47°
2026-05-06 02:09 38.78092 -76.88711 6182 ft 310 kts 28°
2026-05-06 02:10 38.79896 -76.87499 6628 ft 310 kts 23°
2026-05-06 02:10 38.81898 -76.86219 7139 ft 309 kts 24°
2026-05-06 02:10 38.83806 -76.84916 7634 ft 310 kts 26°
2026-05-06 02:10 38.85596 -76.83487 8117 ft 311 kts 38°
2026-05-06 02:11 38.87016 -76.81356 8637 ft 315 kts 60°
2026-05-06 02:11 38.87980 -76.78827 9142 ft 316 kts 65°
2026-05-06 02:11 38.88919 -76.76281 9667 ft 317 kts 65°
2026-05-06 02:11 38.89868 -76.73726 10152 ft 320 kts 64°
2026-05-06 02:12 38.90832 -76.71145 10631 ft 321 kts 64°
2026-05-06 02:12 38.91804 -76.68552 11114 ft 324 kts 64°
2026-05-06 02:12 38.92785 -76.65936 11620 ft 326 kts 64°
2026-05-06 02:12 38.93773 -76.63301 12126 ft 328 kts 64°
2026-05-06 02:13 38.94762 -76.60650 12620 ft 331 kts 65°
2026-05-06 02:13 38.95673 -76.57970 13134 ft 334 kts 68°
2026-05-06 02:13 38.96567 -76.55167 13664 ft 336 kts 68°
2026-05-06 02:13 38.96841 -76.54299 13821 ft 337 kts 68°